Starlink 34489

operational
NORAD ID: 64679 Int'l Des: 2025-139 Owner: SPXS Country: US Constellation: starlink
LEOCIRCULAR

About Starlink 34489

Description loading...

Live Position

Loading 3D Globe...

Upcoming Passes

Altitude History

Altitude vs Time

uPlot chart will show altitude changes over time

Two-Line Element Set

1 64679U 25139R 26063.48468294 .00042610 00000-0 14415-2 0 9994
2 64679 53.1607 151.4630 0001261 50.4667 309.6445 15.30222524 39485
Epoch: Mar 4, 2026 • Age: 22 hours

Current Status

Altitude 478.4 km
Velocity 7.63 km/s
Sub-Earth Point 39.83°N, 164.61°E
Launch Date Jun 28, 2025
Age 0.6 years
Type internet

Technical Details

Classification Payload
Mass 575.00 kg
Dry Mass 530.00 kg
Total Mass 575.00 kg
Length 0.30 m
Diameter 4.10 m
Span 29.00 m
Shape Box + pan
Manufacturer SPXS
Bus Type Starlink V2MO
Phase Status In Orbit
Owner/State SPXS/US

Large Constellations

Loading constellations...